Concordia, KS

10:12 AM CDT on March 25, 2017 (GMT -0500)
Blosser Municipal

Weather History for KCNK - July, 2013

Change the Weather History Date:

Thursday, July 18, 2013

  Actual Average Record
Temperature  
Mean Temperature 81 °F 79 °F  
Max Temperature 93 °F 91 °F 110 °F (1936)
Min Temperature 69 °F 68 °F 57 °F (1899)
Degree Days  
Heating Degree Days 0 0  
Month to date heating degree days 0 0  
Since 1 June heating degree days 15 13  
Since 1 July heating degree days 0 0  
Cooling Degree Days 16 14  
Month to date cooling degree days 254 248  
Year to date cooling degree days 653 602  
Since 1 June cooling degree days 550 513  
Growing Degree Days 31 (Base 50)    
Moisture  
Dew Point 65 °F    
Average Humidity 64    
Maximum Humidity 90    
Minimum Humidity 38    
Precipitation  
Precipitation 0.00 in 0.13 in 3.02 in (1896)
Month to date precipitation 0.54 2.48  
Year to date precipitation 13.21 16.52  
Snow  
Snow 0.00 in 0.00 in T in (1994)
Month to date snowfall 0.0 0.0  
Year to date snowfall 20.3 13.7  
Since 1 July snowfall 0.0 0.0  
Snow Depth 0.00 in    
Sea Level Pressure  
Sea Level Pressure 30.06 in    
Wind  
Wind Speed 13 mph (South)    
Max Wind Speed 25 mph    
Max Gust Speed 31 mph    
Visibility 10 miles    
Events      
T = Trace of Precipitation, MM = Missing Value Source: NWS Daily Summary

Daily Weather History Graph

Daily Weather History Graph

Search for Another Location

Airport or City:

Trip Planner

Search our weather history database for the weather conditions in past years. The results will help you decide how hot, cold, wet, or windy it might be!

Date:

Astronomy

Jul. 18, 2013 Rise Set
Actual Time 6:18 AM CDT 8:55 PM CDT
Civil Twilight 5:46 AM CDT 9:26 PM CDT
Nautical Twilight 5:07 AM CDT 10:05 PM CDT
Astronomical Twilight 4:24 AM CDT 10:48 PM CDT
Moon 4:53 PM CDT (7/18) 2:09 AM CDT (7/18)
Length of Visible Light 15h 39m
Length of Day
14h 36m
Waxing Gibbous, 77% of the Moon is Illuminated
Jul 18
Waxing Gibbous
Jul 22
Full
Jul 29
Last Quarter
Aug 6
New
Aug 14
First Quarter

Hourly Weather History & Observations

Time (CDT) Temp. Heat Index Dew Point Humidity Pressure Visibility Wind Dir Wind Speed Gust Speed Precip Events Conditions
12:55 AM 75.9 °F - 66.0 °F 71% 30.15 in 10.0 mi South 8.1 mph - N/A   Clear
1:55 AM 75.0 °F - 66.0 °F 73% 30.15 in 10.0 mi South 9.2 mph - N/A   Clear
2:55 AM 72.0 °F - 66.0 °F 81% 30.15 in 10.0 mi South 4.6 mph - N/A   Clear
3:55 AM 71.1 °F - 66.9 °F 87% 30.14 in 10.0 mi South 6.9 mph - N/A   Clear
4:55 AM 70.0 °F - 66.0 °F 87% 30.14 in 10.0 mi South 6.9 mph - N/A   Clear
5:55 AM 69.1 °F - 66.0 °F 90% 30.14 in 10.0 mi South 6.9 mph - N/A   Clear
6:55 AM 70.0 °F - 66.9 °F 90% 30.14 in 10.0 mi South 8.1 mph - N/A   Clear
7:55 AM 73.9 °F - 68.0 °F 82% 30.13 in 10.0 mi SSW 10.4 mph - N/A   Clear
8:55 AM 79.0 °F - 66.9 °F 66% 30.12 in 10.0 mi SSW 18.4 mph 23.0 mph N/A   Clear
9:55 AM 82.0 °F 84.5 °F 66.9 °F 60% 30.12 in 10.0 mi SSW 13.8 mph 23.0 mph N/A   Clear
10:55 AM 84.9 °F 87.6 °F 66.9 °F 55% 30.10 in 10.0 mi SSW 18.4 mph 26.5 mph N/A   Clear
11:55 AM 87.1 °F 89.2 °F 66.0 °F 49% 30.09 in 10.0 mi SSW 17.3 mph 25.3 mph N/A   Clear
12:55 PM 89.1 °F 92.1 °F 66.9 °F 48% 30.07 in 10.0 mi South 16.1 mph 26.5 mph N/A   Mostly Cloudy
1:55 PM 89.1 °F 91.0 °F 64.9 °F 45% 30.05 in 10.0 mi South 21.9 mph 27.6 mph N/A   Mostly Cloudy
2:55 PM 90.0 °F 91.3 °F 64.0 °F 42% 30.03 in 10.0 mi SSW 16.1 mph 26.5 mph N/A   Partly Cloudy
3:55 PM 91.9 °F 93.3 °F 64.0 °F 39% 30.00 in 10.0 mi SSW 18.4 mph 28.8 mph N/A   Clear
4:55 PM 91.9 °F 92.9 °F 63.0 °F 38% 29.98 in 10.0 mi SSW 21.9 mph 28.8 mph N/A   Partly Cloudy
5:55 PM 91.0 °F 91.9 °F 63.0 °F 39% 29.96 in 10.0 mi South 21.9 mph 26.5 mph N/A   Partly Cloudy
6:55 PM 90.0 °F 90.6 °F 63.0 °F 40% 29.94 in 10.0 mi South 18.4 mph 26.5 mph N/A   Partly Cloudy
7:55 PM 88.0 °F 88.4 °F 62.1 °F 42% 29.94 in 10.0 mi South 11.5 mph - N/A   Clear
8:55 PM 84.0 °F 85.4 °F 64.0 °F 51% 29.94 in 10.0 mi South 10.4 mph - N/A   Clear
9:55 PM 81.0 °F 82.5 °F 64.0 °F 56% 29.95 in 10.0 mi South 10.4 mph - N/A   Clear
10:55 PM 81.0 °F 82.2 °F 63.0 °F 54% 29.97 in 10.0 mi South 11.5 mph - N/A   Clear
11:55 PM 79.0 °F - 63.0 °F 58% 29.96 in 10.0 mi South 10.4 mph - N/A   Clear